#timestamp,LO_Frequency,Hit,StdDev 
1657544415.5,286046995.1,N
1657544435.3,286046995.2,N
1657544455.2,286046996.9,N
1657544475.0,286046993.8,N
1657544475.9,286046993.8,N
1657544495.8,286046996.4,N
1657544515.6,286046997.5,N
1657544535.4,286046997.1,N
1657544555.3,286047002.4,N
1657544575.1,286047002.4,N
1657544595.9,286046998.7,N
1657544615.7,286046998.1,N
1657544635.5,286046997.1,N
1657544655.4,286046999.3,N
1657544675.2,286046998.8,N
1657544695.0,286046995.1,N
1657544695.9,286046995.1,N
1657544715.8,286046998.3,N
1657544735.6,286046999.8,N
1657544755.5,286047000.6,N
1657544775.3,286046995.4,N
1657544795.1,286046998.9,N
1657544815.9,286046997.3,N
1657544835.7,286046998.8,N
1657544855.5,286046999.3,N
1657544875.4,286046995.7,N
1657544895.2,286046995.4,N
1657544915.1,286046997.9,N
1657544916.0,286046997.9,N
1657544935.8,286046996.5,N
1657544955.6,286046996.7,N
1657544975.5,286046995.2,N
1657544995.3,286046995.1,N
1657545015.1,286046995.5,N
1657545035.9,286046994.3,N
1657545055.7,286046993.9,N
1657545075.6,286046992.4,Y
1657545095.4,286046995.2,P
1657545145.3,286046995.0,E
1657545155.2,286046999.3,N
1657545175.0,286047004.0,P
1657545175.9,286047004.0,N
1657545195.8,286047003.8,N
1657545215.6,286047007.5,Y
1657545235.4,286047009.1,P
1657545255.3,286047006.1,N
1657545275.1,286047007.6,N
1657545295.9,286047007.5,Y
1657545315.7,286047000.2,P
1657545335.5,286046997.7,N
1657545355.4,286046999.0,N
1657545375.2,286046999.1,N
1657545395.1,286046996.4,N
1657545396.0,286046996.4,N
1657545415.8,286046994.5,N
1657545435.6,286046994.1,N
1657545455.5,286046996.6,N
1657545475.3,286047000.0,N
1657545495.1,286047004.4,N
1657545515.9,286047001.4,N
1657545535.7,286047004.1,N
1657545555.6,286047004.1,N
1657545575.4,286047001.8,N
1657545595.2,286047005.7,N
1657545615.1,286047002.4,N
1657545616.0,286047002.4,N
1657545635.8,286047000.2,N
1657545655.6,286047003.3,N
1657545675.5,286047002.3,N
1657545695.3,286047000.0,N
1657545715.2,286046996.5,N
1657545735.9,286046995.8,N
1657545755.7,286046995.4,N
1657545775.6,286046993.7,N
1657545795.4,286046997.6,N
1657545815.2,286046999.1,N
1657545835.1,286046994.5,N
1657545836.0,286046994.5,N
1657545855.8,286046991.8,N
1657545875.7,286046993.9,N
1657545895.5,286046994.5,N
1657545915.3,286046996.4,N
1657545935.2,286046994.2,N
1657545955.0,286046994.4,N
1657545955.9,286046994.4,N
1657545975.8,286046993.9,N
1657545995.6,286046993.5,N
1657546015.4,286046994.7,N
1657546035.3,286046993.6,N
1657546055.1,286046993.8,N
1657546056.0,286046993.8,N
1657546075.8,286046994.8,N
1657546095.7,286046994.3,N
1657546115.5,286046994.7,N
1657546135.4,286046993.9,N
1657546155.2,286046997.6,N
1657546175.0,286046996.4,N
1657546175.9,286046996.4,N
1657546195.8,286046993.9,N
1657546215.6,286046994.4,Y
1657546235.4,286046999.2,P
1657546255.3,286047000.8,N
1657546275.1,286047000.5,N
1657546295.9,286046999.9,N
1657546315.7,286047004.1,N
1657546335.5,286047002.6,N
1657546355.4,286046998.7,N
1657546375.2,286046996.9,N
1657546395.0,286046999.5,N
1657546395.9,286046999.5,N
1657546415.8,286046999.5,N
1657546435.6,286046998.9,N
1657546455.5,286047004.1,N
1657546475.3,286047003.2,N
1657546495.1,286047003.5,N
1657546515.9,286047002.9,N
1657546535.7,286047002.1,N
1657546555.5,286047000.5,N
1657546575.4,286047000.6,N
1657546595.2,286047006.0,N
1657546615.1,286047007.8,Y
1657546616.0,286047007.8,P
1657546635.8,286047006.8,N
1657546655.6,286047009.2,N
1657546675.5,286047009.1,N
1657546695.3,286047007.3,N
1657546715.1,286047007.4,N
1657546735.9,286047008.4,Y
1657546755.7,286047004.2,P
1657546775.6,286047004.3,P
1657546795.4,286046998.4,N
1657546815.2,286046997.8,N
1657546835.1,286047000.7,N
1657546836.0,286047000.7,N
1657546855.8,286047005.5,N
1657546875.7,286047006.8,N
1657546895.5,286047004.9,N
1657546915.3,286047007.2,N
1657546935.2,286047008.2,N
1657546955.9,286047007.3,N
1657546975.7,286047007.5,N
1657546995.6,286047005.6,N
1657547015.4,286047005.6,N
1657547035.3,286047002.3,N
1657547055.1,286047002.3,N
1657547056.0,286047002.3,N
1657547075.8,286047005.5,N
1657547095.7,286047003.9,N
1657547115.5,286047006.0,N
1657547135.3,286047003.2,N
1657547155.2,286047003.5,N
1657547175.0,286047002.8,N
1657547175.9,286047002.8,N
1657547195.8,286047001.6,N
1657547215.6,286047001.2,N
1657547235.4,286047001.5,N
1657547255.3,286047002.1,N
1657547275.1,286047005.7,N
1657547295.9,286047004.9,N
1657547315.7,286047007.6,N
1657547335.5,286047002.1,N
1657547355.4,286047002.8,N
1657547375.2,286046998.6,N
1657547395.0,286046998.7,N
1657547395.9,286046998.7,N
1657547415.8,286046998.9,N
1657547435.6,286047002.7,N
1657547455.5,286047001.5,N
1657547475.3,286047003.8,N
1657547495.1,286047003.7,N
1657547515.9,286047003.2,N
1657547535.7,286047001.7,N
1657547555.6,286047002.7,N
1657547575.4,286047002.3,N
1657547595.2,286046999.8,N
1657547615.1,286047001.9,N
1657547616.0,286047001.9,N
1657547635.8,286046999.7,N
1657547655.7,286046998.9,N
1657547675.5,286046999.1,N
1657547695.3,286047000.8,N
1657547715.2,286046999.1,N
1657547735.0,286046999.5,N
1657547735.9,286046999.5,N
1657547755.7,286046997.3,N
1657547775.6,286046995.3,N
1657547795.4,286046993.3,N
1657547815.3,286046994.4,N
1657547835.1,286046994.3,N
1657547836.0,286046994.3,N
1657547855.8,286046994.2,N
1657547875.7,286046999.6,N
1657547895.5,286046996.9,N
1657547915.3,286047002.3,N
1657547935.2,286047002.7,N
1657547955.0,286046999.1,N
1657547955.9,286046999.1,N
1657547975.8,286046999.2,N
1657547995.6,286046998.1,N
